Weather History for PAWG - October, 2011

Change the Weather History Date:

Sunday, October 23, 2011

  Actual Average (WUND) Record (WUND)
Temperature  
Mean Temperature 44 °F -  
Max Temperature 46 °F - - (-1)
Min Temperature 42 °F - - (-1)
Degree Days  
Heating Degree Days 21    
Moisture  
Dew Point 38 °F    
Average Humidity 81    
Maximum Humidity 87    
Minimum Humidity 76    
Precipitation  
Precipitation 0.00 in - - ()
Sea Level Pressure  
Sea Level Pressure 29.86 in    
Wind  
Wind Speed 7 mph (ESE)    
Max Wind Speed 16 mph    
Max Gust Speed 23 mph    
Visibility 10 miles    
Events      
Averages and records for this station are not official NWS values.
T = Trace of Precipitation, MM = Missing Value Source: NWS Daily Summary

Daily Weather History Graph

Daily Weather History Graph

Search for Another Location

Airport or City:

Trip Planner

Search our weather history database for the weather conditions in past years. The results will help you decide how hot, cold, wet, or windy it might be!

Date:

Astronomy

Oct. 23, 2011 Rise Set
Actual Time 7:38 AM AKDT 5:28 PM AKDT
Civil Twilight 6:59 AM AKDT 6:07 PM AKDT
Nautical Twilight 6:15 AM AKDT 6:50 PM AKDT
Astronomical Twilight 5:32 AM AKDT 7:34 PM AKDT
Moon 3:17 AM AKDT (10/23) 3:51 PM AKDT (10/23)
Length of Visible Light 11h 07m
Length of Day
9h 49m
Waning Crescent, 13% of the Moon is Illuminated
Oct 23
Waning Crescent
Oct 26
New
Nov 2
First Quarter
Nov 10
Full
Nov 18
Last Quarter

Hourly Weather History & Observations

Time (AKDT) Temp. Windchill Dew Point Humidity Pressure Visibility Wind Dir Wind Speed Gust Speed Precip Events Conditions
12:16 AM 42.8 °F - 37.4 °F 81% 29.82 in 10.0 mi Calm Calm - N/A   Overcast
12:36 AM 42.8 °F 35.1 °F 37.4 °F 81% 29.82 in 10.0 mi East 16.1 mph 21.9 mph N/A   Overcast
12:56 AM 42.8 °F 35.1 °F 37.4 °F 81% 29.82 in 10.0 mi East 16.1 mph 23.0 mph N/A   Overcast
1:16 AM 42.8 °F 35.4 °F 37.4 °F 81% 29.82 in 10.0 mi ESE 15.0 mph 23.0 mph N/A   Overcast
1:36 AM 42.8 °F 35.8 °F 37.4 °F 81% 29.83 in 10.0 mi East 13.8 mph 20.7 mph N/A   Overcast
1:56 AM 44.6 °F 43.1 °F 37.4 °F 76% 29.83 in 10.0 mi East 3.5 mph - N/A   Overcast
2:16 AM 42.8 °F - 37.4 °F 81% 29.83 in 7.0 mi Calm Calm - N/A   Overcast
2:36 AM 42.8 °F 37.5 °F 39.2 °F 87% 29.83 in 9.0 mi East 9.2 mph 16.1 mph N/A   Overcast
2:56 AM 42.8 °F 40.1 °F 37.4 °F 81% 29.83 in 10.0 mi SSE 4.6 mph - N/A   Overcast
3:16 AM 42.8 °F 40.1 °F 37.4 °F 81% 29.83 in 10.0 mi SE 4.6 mph - N/A   Overcast
3:36 AM 42.8 °F 39.3 °F 37.4 °F 81% 29.83 in 10.0 mi South 5.8 mph - N/A   Overcast
3:56 AM 44.6 °F - 37.4 °F 76% 29.83 in 10.0 mi Calm Calm - N/A   Mostly Cloudy
4:16 AM 42.8 °F - 37.4 °F 81% 29.84 in 10.0 mi Calm Calm - N/A   Overcast
4:36 AM 42.8 °F 38.0 °F 37.4 °F 81% 29.83 in 10.0 mi East 8.1 mph - N/A   Overcast
4:56 AM 42.8 °F - 37.4 °F 81% 29.84 in 10.0 mi Calm Calm - N/A   Overcast
5:16 AM 44.6 °F 40.7 °F 37.4 °F 76% 29.84 in 10.0 mi ESE 6.9 mph - N/A   Overcast
5:36 AM 44.6 °F 37.4 °F 37.4 °F 76% 29.83 in 10.0 mi East 16.1 mph 19.6 mph N/A   Overcast
5:56 AM 44.6 °F 40.7 °F 37.4 °F 76% 29.84 in 10.0 mi SE 6.9 mph 17.3 mph N/A   Overcast
6:16 AM 44.6 °F 41.4 °F 37.4 °F 76% 29.84 in 10.0 mi SE 5.8 mph - N/A   Overcast
6:36 AM 44.6 °F 40.7 °F 37.4 °F 76% 29.84 in 10.0 mi SE 6.9 mph - N/A   Overcast
6:56 AM 44.6 °F 40.7 °F 37.4 °F 76% 29.84 in 10.0 mi SSE 6.9 mph - N/A   Overcast
7:16 AM 44.6 °F 40.7 °F 37.4 °F 76% 29.84 in 10.0 mi ESE 6.9 mph - N/A   Overcast
7:36 AM 44.6 °F 41.4 °F 37.4 °F 76% 29.85 in 10.0 mi ESE 5.8 mph - N/A   Overcast
7:56 AM 44.6 °F 41.4 °F 37.4 °F 76% 29.85 in 7.0 mi ESE 5.8 mph - N/A   Overcast
8:16 AM 44.6 °F - 37.4 °F 76% 29.86 in 7.0 mi Calm Calm - N/A   Overcast
8:36 AM 42.8 °F - 39.2 °F 87% 29.86 in 7.0 mi Calm Calm - N/A   Overcast
8:56 AM 42.8 °F - 39.2 °F 87% 29.87 in 7.0 mi Calm Calm - N/A   Overcast
9:16 AM 42.8 °F 41.1 °F 39.2 °F 87% 29.87 in 7.0 mi West 3.5 mph - N/A   Overcast
9:36 AM 42.8 °F - 39.2 °F 87% 29.87 in 7.0 mi Calm Calm - N/A   Overcast
9:56 AM 44.6 °F - 39.2 °F 81% 29.87 in 7.0 mi Calm Calm - N/A   Overcast
10:16 AM 44.6 °F 42.2 °F 39.2 °F 81% 29.87 in 7.0 mi East 4.6 mph - N/A   Overcast
10:36 AM 44.6 °F 39.7 °F 39.2 °F 81% 29.87 in 7.0 mi SE 9.2 mph - N/A   Overcast
10:56 AM 44.6 °F 38.8 °F 39.2 °F 81% 29.87 in 10.0 mi ESE 11.5 mph - N/A   Overcast
11:16 AM 44.6 °F 39.7 °F 39.2 °F 81% 29.88 in 10.0 mi SSE 9.2 mph - N/A   Overcast
11:36 AM 44.6 °F 41.4 °F 39.2 °F 81% 29.89 in 10.0 mi SE 5.8 mph - N/A   Overcast
11:56 AM 44.6 °F 39.2 °F 39.2 °F 81% 29.89 in 10.0 mi ESE 10.4 mph - N/A   Overcast
12:16 PM 44.6 °F 38.4 °F 39.2 °F 81% 29.89 in 10.0 mi ESE 12.7 mph - N/A   Overcast
12:36 PM 44.6 °F 38.8 °F 39.2 °F 81% 29.89 in 10.0 mi SE 11.5 mph - N/A   Overcast
12:56 PM 44.6 °F 38.4 °F 39.2 °F 81% 29.89 in 10.0 mi SE 12.7 mph - N/A   Overcast
1:16 PM 44.6 °F 40.2 °F 39.2 °F 81% 29.89 in 10.0 mi SE 8.1 mph - N/A   Overcast
1:36 PM 44.6 °F 38.4 °F 39.2 °F 81% 29.89 in 10.0 mi ESE 12.7 mph - N/A   Overcast
1:56 PM 44.6 °F 38.4 °F 39.2 °F 81% 29.89 in 10.0 mi East 12.7 mph 17.3 mph N/A   Overcast
2:16 PM 44.6 °F 40.2 °F 39.2 °F 81% 29.89 in 10.0 mi ESE 8.1 mph 19.6 mph N/A   Overcast
2:36 PM 44.6 °F 39.2 °F 39.2 °F 81% 29.89 in 10.0 mi ESE 10.4 mph - N/A   Overcast
2:56 PM 44.6 °F 40.7 °F 39.2 °F 81% 29.89 in 10.0 mi SE 6.9 mph - N/A   Overcast
3:16 PM 46.4 °F 41.1 °F 39.2 °F 76% 29.89 in 10.0 mi ESE 11.5 mph - N/A   Overcast
3:36 PM 44.6 °F 39.7 °F 39.2 °F 81% 29.89 in 10.0 mi SE 9.2 mph - N/A   Overcast
3:56 PM 46.4 °F 42.9 °F 39.2 °F 76% 29.89 in 10.0 mi ESE 6.9 mph - N/A   Overcast
4:16 PM 44.6 °F 42.2 °F 39.2 °F 81% 29.89 in 10.0 mi SE 4.6 mph - N/A   Overcast
4:36 PM 44.6 °F 43.1 °F 39.2 °F 81% 29.89 in 10.0 mi ESE 3.5 mph - N/A   Overcast
4:56 PM 44.6 °F - 39.2 °F 81% 29.90 in 10.0 mi Calm Calm - N/A   Overcast
5:16 PM 44.6 °F - 39.2 °F 81% 29.90 in 10.0 mi Calm Calm - N/A   Overcast
5:36 PM 42.8 °F 40.1 °F 39.2 °F 87% 29.90 in 10.0 mi NW 4.6 mph - N/A   Overcast
5:56 PM 42.8 °F 41.1 °F 39.2 °F 87% 29.90 in 10.0 mi NNW 3.5 mph - N/A   Overcast
6:16 PM 42.8 °F - 39.2 °F 87% 29.91 in 10.0 mi Calm Calm - N/A   Overcast
6:36 PM 42.8 °F 39.3 °F 39.2 °F 87% 29.91 in 10.0 mi SSE 5.8 mph - N/A   Overcast
6:56 PM 44.6 °F 40.2 °F 39.2 °F 81% 29.91 in 10.0 mi ESE 8.1 mph - N/A   Overcast
7:16 PM 44.6 °F 41.4 °F 39.2 °F 81% 29.91 in 10.0 mi ESE 5.8 mph - N/A   Overcast
7:36 PM 44.6 °F 43.1 °F 39.2 °F 81% 29.92 in 10.0 mi SSE 3.5 mph - N/A   Overcast
7:56 PM 44.6 °F - 39.2 °F 81% 29.92 in 10.0 mi Calm Calm - N/A   Overcast
8:16 PM 44.6 °F - 39.2 °F 81% 29.93 in 10.0 mi Calm Calm - N/A   Overcast
8:36 PM 42.8 °F 41.1 °F 39.2 °F 87% 29.93 in 10.0 mi West 3.5 mph - N/A   Overcast
8:56 PM 44.6 °F - 39.2 °F 81% 29.94 in 10.0 mi Calm Calm - N/A   Overcast
9:16 PM 42.8 °F - 39.2 °F 87% 29.94 in 10.0 mi Calm Calm - N/A   Overcast
9:36 PM 44.6 °F 38.8 °F 39.2 °F 81% 29.94 in 10.0 mi East 11.5 mph - N/A   Overcast
9:56 PM 44.6 °F 39.7 °F 39.2 °F 81% 29.94 in 10.0 mi ESE 9.2 mph - N/A   Overcast
10:16 PM 44.6 °F 43.1 °F 39.2 °F 81% 29.95 in 10.0 mi SE 3.5 mph - N/A   Overcast
10:36 PM 44.6 °F 43.1 °F 37.4 °F 76% 29.95 in 10.0 mi SSE 3.5 mph - N/A   Overcast
10:56 PM 44.6 °F 42.2 °F 37.4 °F 76% 29.95 in 10.0 mi ESE 4.6 mph - N/A   Overcast
11:16 PM 44.6 °F 42.2 °F 37.4 °F 76% 29.96 in 10.0 mi SSE 4.6 mph - N/A   Overcast
11:36 PM 42.8 °F 40.1 °F 37.4 °F 81% 29.96 in 10.0 mi SE 4.6 mph - N/A   Overcast
11:56 PM 44.6 °F 43.1 °F 37.4 °F 76% 29.96 in 10.0 mi SE 3.5 mph - N/A   Overcast